Weather History for Moffett NAS, CA

Change the Weather History Date:

Wednesday, October 12, 2011

  Actual Average Record
Temperature  
Mean Temperature 71 °F 64 °F  
Max Temperature 83 °F 74 °F 93 °F (1978)
Min Temperature 58 °F 55 °F 44 °F (1956)
Degree Days  
Heating Degree Days 0    
Month to date heating degree days 16  
Since 1 July heating degree days 26  
Cooling Degree Days 6    
Month to date cooling degree days 21  
Year to date cooling degree days 404  
Growing Degree Days 21 (Base 50)    
Moisture  
Dew Point 56 °F    
Average Humidity 66    
Maximum Humidity 90    
Minimum Humidity 41    
Precipitation  
Precipitation 0.00 in 0.02 in 0.94 in (1962)
Month to date precipitation 1.00 0.14  
Year to date precipitation 10.50 9.98  
Since 1 July precipitation 1.00 0.35  
Sea Level Pressure  
Sea Level Pressure 30.05 in    
Wind  
Wind Speed 3 mph (NNW)    
Max Wind Speed 12 mph    
Max Gust Speed 14 mph    
Visibility 10 miles    
Events      
T = Trace of Precipitation, MM = Missing Value Source: NWS Daily Summary

Daily Weather History Graph

Daily Weather History Graph

Search for Another Location

Airport:

Trip Planner

Search our weather history database for the weather conditions in past years. The results will help you decide how hot, cold, wet, or windy it might be!

Date:

Astronomy

Oct. 12, 2011 Rise Set
Actual Time 7:13 AM PDT 6:35 PM PDT
Civil Twilight 6:47 AM PDT 7:01 PM PDT
Nautical Twilight 6:16 AM PDT 7:31 PM PDT
Astronomical Twilight 5:46 AM PDT 8:02 PM PDT
Moon 6:43 PM PDT (10/12) 7:51 AM PDT (10/12)
Length of Visible Light 12h 14m
Length of Day
11h 22m
Full, 100% of the Moon is Illuminated
Oct 12
Full
Oct 19
Last Quarter
Oct 26
New
Nov 2
First Quarter
Nov 10
Full

Hourly Weather History & Observations

Time (PDT) Temp. Heat Index Dew Point Humidity Pressure Visibility Wind Dir Wind Speed Gust Speed Precip Events Conditions
12:56 AM 63.0 °F - 57.0 °F 81% 30.09 in 10.0 mi Calm Calm - N/A   Clear
1:56 AM 62.1 °F - 57.0 °F 84% 30.10 in 10.0 mi Calm Calm - N/A   Clear
2:56 AM 61.0 °F - 57.0 °F 87% 30.09 in 10.0 mi Calm Calm - 0.01 in   Clear
3:56 AM 61.0 °F - 55.9 °F 83% 30.08 in 10.0 mi Calm Calm - N/A   Clear
4:56 AM 60.1 °F - 55.9 °F 86% 30.08 in 10.0 mi Calm Calm - N/A   Clear
5:56 AM 60.1 °F - 55.0 °F 83% 30.09 in 10.0 mi Calm Calm - N/A   Clear
6:56 AM 60.1 °F - 55.9 °F 86% 30.10 in 10.0 mi Calm Calm - N/A   Clear
7:56 AM 60.1 °F - 55.9 °F 86% 30.11 in 10.0 mi Calm Calm - N/A   Clear
8:56 AM 64.9 °F - 57.9 °F 78% 30.12 in 10.0 mi Calm Calm - N/A   Clear
9:56 AM 68.0 °F - 59.0 °F 73% 30.12 in 10.0 mi North 4.6 mph - N/A   Clear
10:56 AM 72.0 °F - 60.1 °F 66% 30.11 in 10.0 mi NNW 5.8 mph - N/A   Clear
11:56 AM 75.0 °F - 59.0 °F 57% 30.09 in 10.0 mi North 5.8 mph - N/A   Clear
12:56 PM 77.0 °F - 57.9 °F 52% 30.06 in 10.0 mi NNW 4.6 mph - N/A   Clear
1:56 PM 81.0 °F 80.7 °F 55.0 °F 41% 30.02 in 10.0 mi NNW 4.6 mph - N/A   Clear
2:56 PM 82.9 °F 82.6 °F 57.9 °F 42% 30.00 in 10.0 mi North 11.5 mph - N/A   Clear
3:56 PM 81.0 °F 81.1 °F 57.9 °F 45% 30.00 in 10.0 mi NNW 9.2 mph - N/A   Clear
4:56 PM 80.1 °F 80.2 °F 55.9 °F 43% 29.99 in 10.0 mi NNW 9.2 mph - N/A   Clear
5:56 PM 78.1 °F - 57.9 °F 50% 29.98 in 10.0 mi NNW 5.8 mph - N/A   Clear
6:56 PM 77.0 °F - 54.0 °F 45% 29.97 in 10.0 mi WNW 3.5 mph - N/A   Clear
7:56 PM 75.9 °F - 50.0 °F 40% 29.98 in 10.0 mi WNW 3.5 mph - N/A   Clear
8:56 PM 73.0 °F - 55.0 °F 53% 29.99 in 10.0 mi WNW 3.5 mph - N/A   Clear
9:56 PM 70.0 °F - 54.0 °F 57% 30.00 in 10.0 mi Calm Calm - N/A   Clear
10:56 PM 68.0 °F - 59.0 °F 73% 30.00 in 10.0 mi Calm Calm - N/A   Clear
11:56 PM 66.0 °F - 55.9 °F 70% 30.01 in 10.0 mi Calm Calm - N/A   Clear